Year,Month,Day,Hour,Minute,Value (Times are PST for temperature in C)
2019,05,26,00,00,10.00
2019,05,26,00,01,10.00
2019,05,26,00,02,10.00
2019,05,26,00,03,10.00
2019,05,26,00,04,10.10
2019,05,26,00,05,10.00
2019,05,26,00,06,10.10
2019,05,26,00,07,10.10
2019,05,26,00,08,10.10
2019,05,26,00,09,10.10
2019,05,26,00,10,10.10
2019,05,26,00,11,10.10
2019,05,26,00,12,10.10
2019,05,26,00,13,10.10
2019,05,26,00,14,10.10
2019,05,26,00,15,10.10
2019,05,26,00,16,10.10
2019,05,26,00,17,10.10
2019,05,26,00,18,10.10
2019,05,26,00,19,10.10
2019,05,26,00,20,10.10
2019,05,26,00,21,10.00
2019,05,26,00,22,10.10
2019,05,26,00,23,10.00
2019,05,26,00,24,10.10
2019,05,26,00,25,10.10
2019,05,26,00,26,10.10
2019,05,26,00,27,10.10
2019,05,26,00,28,10.00
2019,05,26,00,29,10.00
2019,05,26,00,30,10.10
2019,05,26,00,31,10.10
2019,05,26,00,32,10.00
2019,05,26,00,33,10.10
2019,05,26,00,34,10.00
2019,05,26,00,35,10.10
2019,05,26,00,36,10.00
2019,05,26,00,37,10.10
2019,05,26,00,38,10.10
2019,05,26,00,39,10.00
2019,05,26,00,40,10.00
2019,05,26,00,41,10.00
2019,05,26,00,42,10.00
2019,05,26,00,43,10.00
2019,05,26,00,44,10.00
2019,05,26,00,45,10.10
2019,05,26,00,46,10.00
2019,05,26,00,47,10.10
2019,05,26,00,48,10.10
2019,05,26,00,49,10.10
2019,05,26,00,50,10.10
2019,05,26,00,51,10.10
2019,05,26,00,52,10.10
2019,05,26,00,53,10.10
2019,05,26,00,54,10.10
2019,05,26,00,55,10.10
2019,05,26,00,56,10.10
2019,05,26,00,57,10.10
2019,05,26,00,58,10.10
2019,05,26,00,59,10.10
2019,05,26,01,00,10.10
2019,05,26,01,01,10.10
2019,05,26,01,02,10.10
2019,05,26,01,03,10.10
2019,05,26,01,04,10.10
2019,05,26,01,05,10.00
2019,05,26,01,06,10.00
2019,05,26,01,07,10.00
2019,05,26,01,08,10.00
2019,05,26,01,09,10.00
2019,05,26,01,10,10.00
2019,05,26,01,11,10.00
2019,05,26,01,12,9.90
2019,05,26,01,13,9.90
2019,05,26,01,14,9.90
2019,05,26,01,15,9.90
2019,05,26,01,16,9.90
2019,05,26,01,17,9.90
2019,05,26,01,18,9.90
2019,05,26,01,19,9.80
2019,05,26,01,20,9.80
2019,05,26,01,21,9.80
2019,05,26,01,22,9.80
2019,05,26,01,23,9.80
2019,05,26,01,24,9.80
2019,05,26,01,25,9.80
2019,05,26,01,26,9.80
2019,05,26,01,27,9.80
2019,05,26,01,28,9.80
2019,05,26,01,29,9.80
2019,05,26,01,30,9.80
2019,05,26,01,31,9.80
2019,05,26,01,32,9.80
2019,05,26,01,33,9.80
2019,05,26,01,34,9.70
2019,05,26,01,35,9.70
2019,05,26,01,36,9.70
2019,05,26,01,37,9.70
2019,05,26,01,38,9.60
2019,05,26,01,39,9.60
2019,05,26,01,40,9.60
2019,05,26,01,41,9.60
2019,05,26,01,42,9.60
2019,05,26,01,43,9.50
2019,05,26,01,44,9.50
2019,05,26,01,45,9.50
2019,05,26,01,46,9.50
2019,05,26,01,47,9.40
2019,05,26,01,48,9.40
2019,05,26,01,49,9.40
2019,05,26,01,50,9.50
2019,05,26,01,51,9.50
2019,05,26,01,52,9.50
2019,05,26,01,53,9.40
2019,05,26,01,54,9.40
2019,05,26,01,55,9.40
2019,05,26,01,56,9.40
2019,05,26,01,57,9.40
2019,05,26,01,58,9.50
2019,05,26,01,59,9.50
2019,05,26,02,00,9.50
2019,05,26,02,01,9.50
2019,05,26,02,02,9.50
2019,05,26,02,03,9.50
2019,05,26,02,04,9.50
2019,05,26,02,05,9.50
2019,05,26,02,06,9.50
2019,05,26,02,07,9.60
2019,05,26,02,08,9.60
2019,05,26,02,09,9.60
2019,05,26,02,10,9.60
2019,05,26,02,11,9.60
2019,05,26,02,12,9.60
2019,05,26,02,13,9.60
2019,05,26,02,14,9.70
2019,05,26,02,15,9.70
2019,05,26,02,16,9.70
2019,05,26,02,17,9.70
2019,05,26,02,18,9.70
2019,05,26,02,19,9.70
2019,05,26,02,20,9.70
2019,05,26,02,21,9.70
2019,05,26,02,22,9.70
2019,05,26,02,23,9.70
2019,05,26,02,24,9.70
2019,05,26,02,25,9.80
2019,05,26,02,26,9.80
2019,05,26,02,27,9.80
2019,05,26,02,28,9.80
2019,05,26,02,29,9.80
2019,05,26,02,30,9.80
2019,05,26,02,31,9.80
2019,05,26,02,32,9.80
2019,05,26,02,33,9.80
2019,05,26,02,34,9.80
2019,05,26,02,35,9.70
2019,05,26,02,36,9.70
2019,05,26,02,37,9.70
2019,05,26,02,38,9.70
2019,05,26,02,39,9.70
2019,05,26,02,40,9.70
2019,05,26,02,41,9.70
2019,05,26,02,42,9.70
2019,05,26,02,43,9.70
2019,05,26,02,44,9.60
2019,05,26,02,45,9.60
2019,05,26,02,46,9.60
2019,05,26,02,47,9.60
2019,05,26,02,48,9.50
2019,05,26,02,49,9.50
2019,05,26,02,50,9.50
2019,05,26,02,51,9.50
2019,05,26,02,52,9.40
2019,05,26,02,53,9.40
2019,05,26,02,54,9.40
2019,05,26,02,55,9.40
2019,05,26,02,56,9.40
2019,05,26,02,57,9.40
2019,05,26,02,58,9.40
2019,05,26,02,59,9.40
2019,05,26,03,00,9.30
2019,05,26,03,01,9.30
2019,05,26,03,02,9.30
2019,05,26,03,03,9.30
2019,05,26,03,04,9.20
2019,05,26,03,05,9.20
2019,05,26,03,06,9.20
2019,05,26,03,07,9.20
2019,05,26,03,08,9.10
2019,05,26,03,09,9.10
2019,05,26,03,10,9.10
2019,05,26,03,11,9.00
2019,05,26,03,12,9.00
2019,05,26,03,13,9.00
2019,05,26,03,14,9.00
2019,05,26,03,15,9.00
2019,05,26,03,16,9.00
2019,05,26,03,17,9.00
2019,05,26,03,18,9.00
2019,05,26,03,19,8.90
2019,05,26,03,20,8.80
2019,05,26,03,21,8.80
2019,05,26,03,22,8.80
2019,05,26,03,23,8.70
2019,05,26,03,24,8.70
2019,05,26,03,25,8.70
2019,05,26,03,26,8.70
2019,05,26,03,27,8.70
2019,05,26,03,28,8.60
2019,05,26,03,29,8.60
2019,05,26,03,30,8.60
2019,05,26,03,31,8.60
2019,05,26,03,32,8.60
2019,05,26,03,33,8.60
2019,05,26,03,34,8.60
2019,05,26,03,35,8.60
2019,05,26,03,36,8.50
2019,05,26,03,37,8.50
2019,05,26,03,38,8.60
2019,05,26,03,39,8.60
2019,05,26,03,40,8.60
2019,05,26,03,41,8.60
2019,05,26,03,42,8.70
2019,05,26,03,43,8.70
2019,05,26,03,44,8.60
2019,05,26,03,45,8.60
2019,05,26,03,46,8.60
2019,05,26,03,47,8.60
2019,05,26,03,48,8.60
2019,05,26,03,49,8.50
2019,05,26,03,50,8.50
2019,05,26,03,51,8.50
2019,05,26,03,52,8.40
2019,05,26,03,53,8.40
2019,05,26,03,54,8.40
2019,05,26,03,55,8.40
2019,05,26,03,56,8.40
2019,05,26,03,57,8.40
2019,05,26,03,58,8.40
2019,05,26,03,59,8.50
2019,05,26,04,00,8.50
2019,05,26,04,01,8.50
2019,05,26,04,02,8.50
2019,05,26,04,03,8.50
2019,05,26,04,04,8.40
2019,05,26,04,05,8.40
2019,05,26,04,06,8.50
2019,05,26,04,07,8.50
2019,05,26,04,08,8.60
2019,05,26,04,09,8.60
2019,05,26,04,10,8.70
2019,05,26,04,11,8.70
2019,05,26,04,12,8.70
2019,05,26,04,13,8.70
2019,05,26,04,14,8.70
2019,05,26,04,15,8.70
2019,05,26,04,16,8.60
2019,05,26,04,17,8.60
2019,05,26,04,18,8.60
2019,05,26,04,19,8.50
2019,05,26,04,20,8.50
2019,05,26,04,21,8.40
2019,05,26,04,22,8.40
2019,05,26,04,23,8.40
2019,05,26,04,24,8.40
2019,05,26,04,25,8.50
2019,05,26,04,26,8.50
2019,05,26,04,27,8.60
2019,05,26,04,28,8.60
2019,05,26,04,29,8.70
2019,05,26,04,30,8.70
2019,05,26,04,31,8.80
2019,05,26,04,32,8.80
2019,05,26,04,33,8.80
2019,05,26,04,34,8.80
2019,05,26,04,35,8.80
2019,05,26,04,36,8.80
2019,05,26,04,37,8.80
2019,05,26,04,38,8.80
2019,05,26,04,39,8.70
2019,05,26,04,40,8.70
2019,05,26,04,41,8.70
2019,05,26,04,42,8.60
2019,05,26,04,43,8.50
2019,05,26,04,44,8.50
2019,05,26,04,45,8.40
2019,05,26,04,46,8.50
2019,05,26,04,47,8.50
2019,05,26,04,48,8.60
2019,05,26,04,49,8.60
2019,05,26,04,50,8.60
2019,05,26,04,51,8.60
2019,05,26,04,52,8.60
2019,05,26,04,53,8.60
2019,05,26,04,54,8.60
2019,05,26,04,55,8.50
2019,05,26,04,56,8.50
2019,05,26,04,57,8.50
2019,05,26,04,58,8.50
2019,05,26,04,59,8.50
2019,05,26,05,00,8.50
2019,05,26,05,01,8.50
2019,05,26,05,02,8.50
2019,05,26,05,03,8.40
2019,05,26,05,04,8.40
2019,05,26,05,05,8.40
2019,05,26,05,06,8.40
2019,05,26,05,07,8.40
2019,05,26,05,08,8.40
2019,05,26,05,09,8.40
2019,05,26,05,10,8.40
2019,05,26,05,11,8.30
2019,05,26,05,12,8.30
2019,05,26,05,13,8.30
2019,05,26,05,14,8.30
2019,05,26,05,15,8.40
2019,05,26,05,16,8.50
2019,05,26,05,17,8.50
2019,05,26,05,18,8.50
2019,05,26,05,19,8.60
2019,05,26,05,20,8.60
2019,05,26,05,21,8.70
2019,05,26,05,22,8.70
2019,05,26,05,23,8.70
2019,05,26,05,24,8.70
2019,05,26,05,25,8.70
2019,05,26,05,26,8.70
2019,05,26,05,27,8.60
2019,05,26,05,28,8.60
2019,05,26,05,29,8.50
2019,05,26,05,30,8.50
2019,05,26,05,31,8.40
2019,05,26,05,32,8.40
2019,05,26,05,33,8.40
2019,05,26,05,34,8.30
2019,05,26,05,35,8.30
2019,05,26,05,36,8.30
2019,05,26,05,37,8.30
2019,05,26,05,38,8.20
2019,05,26,05,39,8.20
2019,05,26,05,40,8.10
2019,05,26,05,41,8.10
2019,05,26,05,42,8.10
2019,05,26,05,43,8.00
2019,05,26,05,44,8.00
2019,05,26,05,45,8.10
2019,05,26,05,46,8.10
2019,05,26,05,47,8.10
2019,05,26,05,48,8.10
2019,05,26,05,49,8.20
2019,05,26,05,50,8.20
2019,05,26,05,51,8.30
2019,05,26,05,52,8.30
2019,05,26,05,53,8.30
2019,05,26,05,54,8.40
2019,05,26,05,55,8.40
2019,05,26,05,56,8.30
2019,05,26,05,57,8.30
2019,05,26,05,58,8.30
2019,05,26,05,59,8.30
2019,05,26,06,00,8.30
2019,05,26,06,01,8.30
2019,05,26,06,02,8.30
2019,05,26,06,03,8.30
2019,05,26,06,04,8.40
2019,05,26,06,05,8.40
2019,05,26,06,06,8.40
2019,05,26,06,07,8.50
2019,05,26,06,08,8.50
2019,05,26,06,09,8.60
2019,05,26,06,10,8.60
2019,05,26,06,11,8.60
2019,05,26,06,12,8.70
2019,05,26,06,13,8.80
2019,05,26,06,14,8.80
2019,05,26,06,15,8.80
2019,05,26,06,16,8.80
2019,05,26,06,17,8.90
2019,05,26,06,18,8.90
2019,05,26,06,19,8.90
2019,05,26,06,20,8.90
2019,05,26,06,21,8.90
2019,05,26,06,22,8.90
2019,05,26,06,23,9.00
2019,05,26,06,24,9.00
2019,05,26,06,25,9.10
2019,05,26,06,26,9.10
2019,05,26,06,27,9.20
2019,05,26,06,28,9.30
2019,05,26,06,29,9.30
2019,05,26,06,30,9.40
2019,05,26,06,31,9.40
2019,05,26,06,32,9.50
2019,05,26,06,33,9.50
2019,05,26,06,34,9.60
2019,05,26,06,35,9.70
2019,05,26,06,36,9.70
2019,05,26,06,37,9.80
2019,05,26,06,38,9.80
2019,05,26,06,39,9.80
2019,05,26,06,40,9.90
2019,05,26,06,41,9.90
2019,05,26,06,42,10.00
2019,05,26,06,43,10.10
2019,05,26,06,44,10.10
2019,05,26,06,45,10.10
2019,05,26,06,46,10.20
2019,05,26,06,47,10.20
2019,05,26,06,48,10.30
2019,05,26,06,49,10.30
2019,05,26,06,50,10.30
2019,05,26,06,51,10.30
2019,05,26,06,52,10.30
2019,05,26,06,53,10.30
2019,05,26,06,54,10.40
2019,05,26,06,55,10.40
2019,05,26,06,56,10.40
2019,05,26,06,57,10.50
2019,05,26,06,58,10.50
2019,05,26,06,59,10.60
2019,05,26,07,00,10.60
2019,05,26,07,01,10.60
2019,05,26,07,02,10.60
2019,05,26,07,03,10.60
2019,05,26,07,04,10.60
2019,05,26,07,05,10.70
2019,05,26,07,06,10.70
2019,05,26,07,07,10.80
2019,05,26,07,08,10.80
2019,05,26,07,09,10.80
2019,05,26,07,10,10.90
2019,05,26,07,11,10.90
2019,05,26,07,12,11.00
2019,05,26,07,13,11.00
2019,05,26,07,14,11.10
2019,05,26,07,15,11.10
2019,05,26,07,16,11.10
2019,05,26,07,17,11.20
2019,05,26,07,18,11.20
2019,05,26,07,19,11.30
2019,05,26,07,20,11.30
2019,05,26,07,21,11.40
2019,05,26,07,22,11.50
2019,05,26,07,23,11.60
2019,05,26,07,24,11.70
2019,05,26,07,25,11.80
2019,05,26,07,26,11.90
2019,05,26,07,27,11.90
2019,05,26,07,28,12.00
2019,05,26,07,29,12.10
2019,05,26,07,30,12.10
2019,05,26,07,31,12.10
2019,05,26,07,32,12.10
2019,05,26,07,33,12.20
2019,05,26,07,34,12.20
2019,05,26,07,35,12.30
2019,05,26,07,36,12.30
2019,05,26,07,37,12.30
2019,05,26,07,38,12.40
2019,05,26,07,39,12.40
2019,05,26,07,40,12.50
2019,05,26,07,41,12.50
2019,05,26,07,42,12.60
2019,05,26,07,43,12.60
2019,05,26,07,44,12.60
2019,05,26,07,45,12.60
2019,05,26,07,46,12.60
2019,05,26,07,47,12.60
2019,05,26,07,48,12.60
2019,05,26,07,49,12.60
2019,05,26,07,50,12.70
2019,05,26,07,51,12.70
2019,05,26,07,52,12.80
2019,05,26,07,53,12.80
2019,05,26,07,54,12.90
2019,05,26,07,55,12.90
2019,05,26,07,56,12.90
2019,05,26,07,57,13.00
2019,05,26,07,58,13.10
2019,05,26,07,59,13.10
2019,05,26,08,00,13.20
2019,05,26,08,01,13.30
2019,05,26,08,02,13.40
2019,05,26,08,03,13.50
2019,05,26,08,04,13.50
2019,05,26,08,05,13.60
2019,05,26,08,06,13.70
2019,05,26,08,07,13.70
2019,05,26,08,08,13.80
2019,05,26,08,09,13.90
2019,05,26,08,10,14.00
2019,05,26,08,11,14.00
2019,05,26,08,12,14.20
2019,05,26,08,13,14.30
2019,05,26,08,14,14.40
2019,05,26,08,15,14.60
2019,05,26,08,16,14.70
2019,05,26,08,17,14.90
2019,05,26,08,18,15.00
2019,05,26,08,19,15.10
2019,05,26,08,20,15.10
2019,05,26,08,21,15.00
2019,05,26,08,22,14.70
2019,05,26,08,23,14.40
2019,05,26,08,24,14.00
2019,05,26,08,25,13.70
2019,05,26,08,26,13.50
2019,05,26,08,27,13.30
2019,05,26,08,28,13.20
2019,05,26,08,29,13.10
2019,05,26,08,30,13.10
2019,05,26,08,31,13.10
2019,05,26,08,32,13.20
2019,05,26,08,33,13.20
2019,05,26,08,34,13.30
2019,05,26,08,35,13.30
2019,05,26,08,36,13.40
2019,05,26,08,37,13.40
2019,05,26,08,38,13.40
2019,05,26,08,39,13.40
2019,05,26,08,40,13.40
2019,05,26,08,41,13.40
2019,05,26,08,42,13.40
2019,05,26,08,43,13.30
2019,05,26,08,44,13.20
2019,05,26,08,45,13.20
2019,05,26,08,46,13.10
2019,05,26,08,47,13.10
2019,05,26,08,48,13.10
2019,05,26,08,49,13.20
2019,05,26,08,50,13.20
2019,05,26,08,51,13.30
2019,05,26,08,52,13.40
2019,05,26,08,53,13.50
2019,05,26,08,54,13.60
2019,05,26,08,55,13.70
2019,05,26,08,56,13.80
2019,05,26,08,57,13.80
2019,05,26,08,58,13.80
2019,05,26,08,59,13.80
2019,05,26,09,00,13.90
2019,05,26,09,01,13.90
2019,05,26,09,02,13.90
2019,05,26,09,03,14.00
2019,05,26,09,04,14.10
2019,05,26,09,05,14.10
2019,05,26,09,06,14.10
2019,05,26,09,07,14.20
2019,05,26,09,08,14.20
2019,05,26,09,09,14.30
2019,05,26,09,10,14.40
2019,05,26,09,11,14.40
2019,05,26,09,12,14.40
2019,05,26,09,13,14.50
2019,05,26,09,14,14.70
2019,05,26,09,15,14.70
2019,05,26,09,16,14.80
2019,05,26,09,17,14.90
2019,05,26,09,18,15.00
2019,05,26,09,19,15.00
2019,05,26,09,20,15.10
2019,05,26,09,21,15.10
2019,05,26,09,22,15.10
2019,05,26,09,23,15.00
2019,05,26,09,24,15.00
2019,05,26,09,25,14.90
2019,05,26,09,26,15.00
2019,05,26,09,27,15.00
2019,05,26,09,28,15.00
2019,05,26,09,29,15.00
2019,05,26,09,30,15.00
2019,05,26,09,31,14.90
2019,05,26,09,32,14.90
2019,05,26,09,33,14.90
2019,05,26,09,34,14.90
2019,05,26,09,35,14.90
2019,05,26,09,36,14.80
2019,05,26,09,37,14.70
2019,05,26,09,38,14.60
2019,05,26,09,39,14.50
2019,05,26,09,40,14.40
2019,05,26,09,41,14.40
2019,05,26,09,42,14.30
2019,05,26,09,43,14.30
2019,05,26,09,44,14.30
2019,05,26,09,45,14.40
2019,05,26,09,46,14.40
2019,05,26,09,47,14.40
2019,05,26,09,48,14.40
2019,05,26,09,49,14.40
2019,05,26,09,50,14.40
2019,05,26,09,51,14.40
2019,05,26,09,52,14.40
2019,05,26,09,53,14.40
2019,05,26,09,54,14.30
2019,05,26,09,55,14.30
2019,05,26,09,56,14.20
2019,05,26,09,57,14.10
2019,05,26,09,58,14.00
2019,05,26,09,59,14.00
2019,05,26,10,00,14.00
2019,05,26,10,01,14.00
2019,05,26,10,02,14.10
2019,05,26,10,03,14.30
2019,05,26,10,04,14.40
2019,05,26,10,05,14.50
2019,05,26,10,06,14.60
2019,05,26,10,07,14.70
2019,05,26,10,08,14.70
2019,05,26,10,09,14.70
2019,05,26,10,10,14.70
2019,05,26,10,11,14.60
2019,05,26,10,12,14.40
2019,05,26,10,13,14.30
2019,05,26,10,14,14.30
2019,05,26,10,15,14.30
2019,05,26,10,16,14.30
2019,05,26,10,17,14.30
2019,05,26,10,18,14.40
2019,05,26,10,19,14.40
2019,05,26,10,20,14.40
2019,05,26,10,21,14.40
2019,05,26,10,22,14.60
2019,05,26,10,23,14.60
2019,05,26,10,24,14.70
2019,05,26,10,25,14.70
2019,05,26,10,26,14.60
2019,05,26,10,27,14.60
2019,05,26,10,28,14.50
2019,05,26,10,29,14.60
2019,05,26,10,30,14.70
2019,05,26,10,31,14.80
2019,05,26,10,32,14.90
2019,05,26,10,33,15.00
2019,05,26,10,34,15.00
2019,05,26,10,35,15.10
2019,05,26,10,36,15.10
2019,05,26,10,37,15.20
2019,05,26,10,38,15.30
2019,05,26,10,39,15.40
2019,05,26,10,40,15.50
2019,05,26,10,41,15.50
2019,05,26,10,42,15.40
2019,05,26,10,43,15.30
2019,05,26,10,44,15.40
2019,05,26,10,45,15.40
2019,05,26,10,46,15.40
2019,05,26,10,47,15.40
2019,05,26,10,48,15.30
2019,05,26,10,49,15.30
2019,05,26,10,50,15.30
2019,05,26,10,51,15.40
2019,05,26,10,52,15.50
2019,05,26,10,53,15.60
2019,05,26,10,54,15.50
2019,05,26,10,55,15.40
2019,05,26,10,56,15.30
2019,05,26,10,57,15.10
2019,05,26,10,58,15.00
2019,05,26,10,59,14.90
2019,05,26,11,00,14.90
2019,05,26,11,01,14.90
2019,05,26,11,02,15.00
2019,05,26,11,03,15.10
2019,05,26,11,04,15.20
2019,05,26,11,05,15.20
2019,05,26,11,06,15.30
2019,05,26,11,07,15.30
2019,05,26,11,08,15.30
2019,05,26,11,09,15.30
2019,05,26,11,10,15.10
2019,05,26,11,11,15.00
2019,05,26,11,12,14.90
2019,05,26,11,13,15.00
2019,05,26,11,14,15.00
2019,05,26,11,15,14.90
2019,05,26,11,16,14.70
2019,05,26,11,17,14.50
2019,05,26,11,18,14.40
2019,05,26,11,19,14.40
2019,05,26,11,20,14.40
2019,05,26,11,21,14.50
2019,05,26,11,22,14.60
2019,05,26,11,23,14.60
2019,05,26,11,24,14.50
2019,05,26,11,25,14.50
2019,05,26,11,26,14.30
2019,05,26,11,27,14.30
2019,05,26,11,28,14.20
2019,05,26,11,29,14.10
2019,05,26,11,30,14.00
2019,05,26,11,31,14.00
2019,05,26,11,32,14.00
2019,05,26,11,33,14.00
2019,05,26,11,34,14.00
2019,05,26,11,35,14.10
2019,05,26,11,36,14.20
2019,05,26,11,37,14.30
2019,05,26,11,38,14.30
2019,05,26,11,39,14.20
2019,05,26,11,40,14.20
2019,05,26,11,41,14.10
2019,05,26,11,42,14.00
2019,05,26,11,43,14.00
2019,05,26,11,44,14.00
2019,05,26,11,45,14.10
2019,05,26,11,46,14.10
2019,05,26,11,47,14.10
2019,05,26,11,48,14.00
2019,05,26,11,49,14.10
2019,05,26,11,50,14.20
2019,05,26,11,51,14.30
2019,05,26,11,52,14.30
2019,05,26,11,53,14.30
2019,05,26,11,54,14.40
2019,05,26,11,55,14.30
2019,05,26,11,56,14.30
2019,05,26,11,57,14.30
2019,05,26,11,58,14.20
2019,05,26,11,59,14.20
2019,05,26,12,00,14.20
2019,05,26,12,01,14.20
2019,05,26,12,02,14.20
2019,05,26,12,03,14.40
2019,05,26,12,04,14.60
2019,05,26,12,05,14.80
2019,05,26,12,06,15.00
2019,05,26,12,07,14.90
2019,05,26,12,08,14.90
2019,05,26,12,09,14.80
2019,05,26,12,10,14.90
2019,05,26,12,11,15.00
2019,05,26,12,12,15.10
2019,05,26,12,13,15.20
2019,05,26,12,14,15.40
2019,05,26,12,15,15.60
2019,05,26,12,16,15.70
2019,05,26,12,17,15.90
2019,05,26,12,18,16.10
2019,05,26,12,19,16.30
2019,05,26,12,20,16.30
2019,05,26,12,21,16.20
2019,05,26,12,22,16.10
2019,05,26,12,23,15.90
2019,05,26,12,24,15.80
2019,05,26,12,25,15.80
2019,05,26,12,26,15.90
2019,05,26,12,27,15.90
2019,05,26,12,28,16.00
2019,05,26,12,29,16.00
2019,05,26,12,30,15.90
2019,05,26,12,31,15.90
2019,05,26,12,32,15.90
2019,05,26,12,33,15.90
2019,05,26,12,34,15.90
2019,05,26,12,35,15.80
2019,05,26,12,36,15.70
2019,05,26,12,37,15.60
2019,05,26,12,38,15.50
2019,05,26,12,39,15.40
2019,05,26,12,40,15.30
2019,05,26,12,41,15.20
2019,05,26,12,42,15.00
2019,05,26,12,43,14.90
2019,05,26,12,44,14.80
2019,05,26,12,45,14.80
2019,05,26,12,46,14.80
2019,05,26,12,47,14.80
2019,05,26,12,48,14.80
2019,05,26,12,49,14.90
2019,05,26,12,50,15.10
2019,05,26,12,51,15.20
2019,05,26,12,52,15.40
2019,05,26,12,53,15.50
2019,05,26,12,54,15.40
2019,05,26,12,55,15.40
2019,05,26,12,56,15.50
2019,05,26,12,57,15.60
2019,05,26,12,58,15.80
2019,05,26,12,59,15.90
2019,05,26,13,00,16.00
2019,05,26,13,01,16.10
2019,05,26,13,02,16.00
2019,05,26,13,03,15.90
2019,05,26,13,04,15.80
2019,05,26,13,05,15.70
2019,05,26,13,06,15.40
2019,05,26,13,07,15.30
2019,05,26,13,08,15.10
2019,05,26,13,09,14.70
2019,05,26,13,10,14.30
2019,05,26,13,11,14.00
2019,05,26,13,12,14.00
2019,05,26,13,13,14.00
2019,05,26,13,14,14.00
2019,05,26,13,15,13.90
2019,05,26,13,16,13.80
2019,05,26,13,17,13.80
2019,05,26,13,18,13.70
2019,05,26,13,19,13.70
2019,05,26,13,20,13.60
2019,05,26,13,21,13.50
2019,05,26,13,22,13.50
2019,05,26,13,23,13.50
2019,05,26,13,24,13.60
2019,05,26,13,25,13.70
2019,05,26,13,26,13.80
2019,05,26,13,27,13.80
2019,05,26,13,28,13.80
2019,05,26,13,29,13.80
2019,05,26,13,30,13.70
2019,05,26,13,31,13.60
2019,05,26,13,32,13.50
2019,05,26,13,33,13.40
2019,05,26,13,34,13.40
2019,05,26,13,35,13.40
2019,05,26,13,36,13.40
2019,05,26,13,37,13.40
2019,05,26,13,38,13.40
2019,05,26,13,39,13.40
2019,05,26,13,40,13.40
2019,05,26,13,41,13.40
2019,05,26,13,42,13.50
2019,05,26,13,43,13.60
2019,05,26,13,44,13.70
2019,05,26,13,45,13.60
2019,05,26,13,46,13.70
2019,05,26,13,47,13.70
2019,05,26,13,48,13.70
2019,05,26,13,49,13.80
2019,05,26,13,50,13.80
2019,05,26,13,51,13.90
2019,05,26,13,52,13.90
2019,05,26,13,53,14.00
2019,05,26,13,54,14.20
2019,05,26,13,55,14.30
2019,05,26,13,56,14.30
2019,05,26,13,57,14.40
2019,05,26,13,58,14.50
2019,05,26,13,59,14.60
2019,05,26,14,00,14.70
2019,05,26,14,01,14.70
2019,05,26,14,02,14.80
2019,05,26,14,03,14.80
2019,05,26,14,04,14.90
2019,05,26,14,05,14.90
2019,05,26,14,06,14.90
2019,05,26,14,07,15.00
2019,05,26,14,08,15.00
2019,05,26,14,09,15.10
2019,05,26,14,10,15.10
2019,05,26,14,11,15.20
2019,05,26,14,12,15.40
2019,05,26,14,13,15.50
2019,05,26,14,14,15.60
2019,05,26,14,15,15.60
2019,05,26,14,16,15.60
2019,05,26,14,17,15.60
2019,05,26,14,18,15.70
2019,05,26,14,19,15.80
2019,05,26,14,20,15.90
2019,05,26,14,21,16.00
2019,05,26,14,22,16.20
2019,05,26,14,23,16.40
2019,05,26,14,24,16.60
2019,05,26,14,25,16.80
2019,05,26,14,26,16.90
2019,05,26,14,27,17.00
2019,05,26,14,28,17.20
2019,05,26,14,29,17.30
2019,05,26,14,30,17.30
2019,05,26,14,31,17.20
2019,05,26,14,32,17.10
2019,05,26,14,33,17.00
2019,05,26,14,34,16.90
2019,05,26,14,35,16.80
2019,05,26,14,36,16.80
2019,05,26,14,37,16.80
2019,05,26,14,38,16.80
2019,05,26,14,39,16.70
2019,05,26,14,40,16.70
2019,05,26,14,41,16.80
2019,05,26,14,42,16.90
2019,05,26,14,43,17.00
2019,05,26,14,44,16.90
2019,05,26,14,45,16.80
2019,05,26,14,46,16.80
2019,05,26,14,47,16.80
2019,05,26,14,48,16.80
2019,05,26,14,49,16.70
2019,05,26,14,50,16.70
2019,05,26,14,51,16.60
2019,05,26,14,52,16.50
2019,05,26,14,53,16.40
2019,05,26,14,54,16.30
2019,05,26,14,55,16.20
2019,05,26,14,56,16.10
2019,05,26,14,57,16.20
2019,05,26,14,58,16.10
2019,05,26,14,59,16.10
2019,05,26,15,00,16.00
2019,05,26,15,01,15.90
2019,05,26,15,02,15.90
2019,05,26,15,03,15.80
2019,05,26,15,04,15.80
2019,05,26,15,05,15.80
2019,05,26,15,06,15.90
2019,05,26,15,07,15.90
2019,05,26,15,08,16.00
2019,05,26,15,09,16.20
2019,05,26,15,10,16.30
2019,05,26,15,11,16.40
2019,05,26,15,12,16.60
2019,05,26,15,13,16.70
2019,05,26,15,14,16.80
2019,05,26,15,15,16.90
2019,05,26,15,16,17.00
2019,05,26,15,17,17.00
2019,05,26,15,18,16.90
2019,05,26,15,19,16.90
2019,05,26,15,20,16.90
2019,05,26,15,21,16.90
2019,05,26,15,22,16.90
2019,05,26,15,23,16.90
2019,05,26,15,24,16.90
2019,05,26,15,25,16.90
2019,05,26,15,26,17.00
2019,05,26,15,27,17.00
2019,05,26,15,28,17.00
2019,05,26,15,29,17.10
2019,05,26,15,30,17.20
2019,05,26,15,31,17.40
2019,05,26,15,32,17.60
2019,05,26,15,33,17.70
2019,05,26,15,34,17.70
2019,05,26,15,35,17.70
2019,05,26,15,36,17.70
2019,05,26,15,37,17.50
2019,05,26,15,38,17.40
2019,05,26,15,39,17.40
2019,05,26,15,40,17.40
2019,05,26,15,41,17.40
2019,05,26,15,42,17.30
2019,05,26,15,43,17.20
2019,05,26,15,44,17.10
2019,05,26,15,45,17.00
2019,05,26,15,46,16.90
2019,05,26,15,47,16.90
2019,05,26,15,48,16.70
2019,05,26,15,49,16.60
2019,05,26,15,50,16.60
2019,05,26,15,51,16.60
2019,05,26,15,52,16.50
2019,05,26,15,53,16.50
2019,05,26,15,54,16.60
2019,05,26,15,55,16.50
2019,05,26,15,56,16.50
2019,05,26,15,57,16.50
2019,05,26,15,58,16.30
2019,05,26,15,59,16.20
2019,05,26,16,00,16.00
2019,05,26,16,01,15.90
2019,05,26,16,02,15.90
2019,05,26,16,03,15.90
2019,05,26,16,04,16.00
2019,05,26,16,05,16.10
2019,05,26,16,06,16.10
2019,05,26,16,07,16.10
2019,05,26,16,08,16.20
2019,05,26,16,09,16.20
2019,05,26,16,10,16.20
2019,05,26,16,11,16.10
2019,05,26,16,12,16.00
2019,05,26,16,13,15.90
2019,05,26,16,14,15.80
2019,05,26,16,15,15.70
2019,05,26,16,16,15.50
2019,05,26,16,17,15.40
2019,05,26,16,18,15.30
2019,05,26,16,19,15.20
2019,05,26,16,20,15.20
2019,05,26,16,21,15.10
2019,05,26,16,22,15.10
2019,05,26,16,23,15.10
2019,05,26,16,24,15.00
2019,05,26,16,25,15.00
2019,05,26,16,26,15.00
2019,05,26,16,27,15.10
2019,05,26,16,28,15.20
2019,05,26,16,29,15.20
2019,05,26,16,30,15.20
2019,05,26,16,31,15.20
2019,05,26,16,32,15.10
2019,05,26,16,33,15.20
2019,05,26,16,34,15.20
2019,05,26,16,35,15.20
2019,05,26,16,36,15.20
2019,05,26,16,37,15.20
2019,05,26,16,38,15.20
2019,05,26,16,39,15.30
2019,05,26,16,40,15.40
2019,05,26,16,41,15.50
2019,05,26,16,42,15.60
2019,05,26,16,43,15.70
2019,05,26,16,44,15.70
2019,05,26,16,45,15.80
2019,05,26,16,46,15.80
2019,05,26,16,47,15.70
2019,05,26,16,48,15.80
2019,05,26,16,49,15.80
2019,05,26,16,50,15.80
2019,05,26,16,51,15.80
2019,05,26,16,52,15.90
2019,05,26,16,53,16.00
2019,05,26,16,54,16.00
2019,05,26,16,55,16.10
2019,05,26,16,56,16.20
2019,05,26,16,57,16.30
2019,05,26,16,58,16.40
2019,05,26,16,59,16.50
2019,05,26,17,00,16.50
2019,05,26,17,01,16.50
2019,05,26,17,02,16.50
2019,05,26,17,03,16.40
2019,05,26,17,04,16.30
2019,05,26,17,05,16.40
2019,05,26,17,06,16.40
2019,05,26,17,07,16.40
2019,05,26,17,08,16.40
2019,05,26,17,09,16.40
2019,05,26,17,10,16.40
2019,05,26,17,11,16.30
2019,05,26,17,12,16.30
2019,05,26,17,13,16.30
2019,05,26,17,14,16.30
2019,05,26,17,15,16.30
2019,05,26,17,16,16.30
2019,05,26,17,17,16.40
2019,05,26,17,18,16.40
2019,05,26,17,19,16.50
2019,05,26,17,20,16.60
2019,05,26,17,21,16.70
2019,05,26,17,22,16.70
2019,05,26,17,23,16.80
2019,05,26,17,24,16.80
2019,05,26,17,25,16.80
2019,05,26,17,26,16.90
2019,05,26,17,27,17.00
2019,05,26,17,28,17.10
2019,05,26,17,29,17.20
2019,05,26,17,30,17.30
2019,05,26,17,31,17.30
2019,05,26,17,32,17.30
2019,05,26,17,33,17.30